Regional Weather Roundup
Issued by NWS Little Rock, AR

Home | Current Version | Previous Version | Graphics & Text | Print | Product List | Glossary On
Versions: 1 2 3 4 5 6 7 8 9 10 11 12 13 14 15 16 17 18 19 20 21 22 23 24 25 26 27 28 29 30 31 32 33 34 35 36 37 38 39 40 41 42 43 44 45 46 47 48 49 50
000
ASUS44 KLZK 260305
RWRLZK

WEATHER ROUNDUP FOR ARKANSAS
NATIONAL WEATHER SERVICE LITTLE ROCK AR
1000 PM CDT WED MAR 25 2015

NOTE: "FAIR" INDICATES FEW OR NO CLOUDS BELOW 12,000 FEET WITH NO
SIGNIFICANT WEATHER AND/OR OBSTRUCTIONS TO VISIBILITY.

ARZ001-003-010-029-260400-
NORTHWEST ARKANSAS

CITY           SKY/WX    TMP DP  RH WIND       PRES   REMARKS
FAYETTEVILLE   MOCLDY    53  53 100 E9        29.89F
FORT SMITH     MOCLDY    74  56  53 N14       29.78R
HARRISON       TSTM      52  52 100 N7        29.94F FOG
BENTONVILLE    MOCLDY    54  48  82 CALM      29.92R THUNDER
ROGERS         LGT RAIN  52  51  97 VRB5      29.92R
SILOAM SPGS    MOCLDY    54  46  76 E5        29.94R THUNDER
HIGHFILL       TSTM      53  51  93 N6        29.90R FOG
$$

ARZ004-005-016-260400-
NORTH CENTRAL ARKANSAS

CITY           SKY/WX    TMP DP  RH WIND       PRES   REMARKS
BATESVILLE     FAIR      70  55  60 S9        29.86R
FLIPPIN        CLOUDY    55  50  82 E3        29.95R THUNDER
MTN HOME       TSTM      54  54 100 VRB7      29.92R FOG
$$

ARZ040-041-260400-
WEST CENTRAL ARKANSAS

CITY           SKY/WX    TMP DP  RH WIND       PRES   REMARKS
MENA           FAIR      73  57  56 S3        29.83F
MOUNT IDA      FAIR      73  54  51 VRB5      29.80F
$$

ARZ009-017-025-026-028-260400-
NORTHEAST ARKANSAS

CITY           SKY/WX    TMP DP  RH WIND       PRES   REMARKS
CORNING          N/A     66  61  82 E8        29.85S THUNDER
JONESBORO      FAIR      65  60  84 S10       29.85S
NEWPORT        FAIR      65  61  87 S12       29.87R
BLYTHEVILLE    FAIR      66  56  70 S8        29.86S
$$

ARZ022-023-033-042-044-260400-
CENTRAL ARKANSAS

CITY           SKY/WX    TMP DP  RH WIND       PRES   REMARKS
LITTLE ROCK    MOCLDY    69  52  54 S8        29.86R
N LITTLE ROCK  MOCLDY    69  57  64 S9        29.86R
JACKSONVILLE   FAIR      68  56  64 E3        29.85R
SEARCY         FAIR      67  58  72 S6        29.87R
HOT SPRINGS    FAIR      70  52  52 S3        29.86R
RUSSELLVILLE   FAIR      71  56  58 SE6       29.80S
CLINTON        FAIR      68  57  68 SE5       29.84F
$$

ARZ036-260400-
EAST ARKANSAS

CITY           SKY/WX    TMP DP  RH WIND       PRES   REMARKS
WEST MEMPHIS   FAIR      62  58  86 S6        29.86S
$$

ARZ050-053-066-070-073-260400-
SOUTHWEST ARKANSAS

CITY           SKY/WX    TMP DP  RH WIND       PRES   REMARKS
ARKADELPHIA    FAIR      66  59  78 CALM      29.87R
CAMDEN         FAIR      66  52  59 MISG      29.88R
TEXARKANA      FAIR      71  55  56 S6        29.86R
EL DORADO      FAIR      68  54  60 S7        29.88R
$$

ARZ056-057-069-260400-
SOUTHEAST ARKANSAS

CITY           SKY/WX    TMP DP  RH WIND       PRES   REMARKS
PINE BLUFF     FAIR      67  55  65 S9        29.89R
STUTTGART      FAIR      66  55  68 S8        29.88R
MONTICELLO     FAIR      69  55  60 SW10      29.89R

$$




USA.gov is the U.S. government's official web portal to all federal, state and local government web resources and services.